This is the latest recevied weather packets stored in our database for station/object AA0RD-13. If no packets are shown the sender has not sent any weather packets the latest 10 day(s).
| Time | Temp. | Humidity | Pressure | Rain* | Wind** | Luminosity | Snow |
|---|---|---|---|---|---|---|---|
| 1777862925 | 20.56° C | 53% | 1009.3 hPa | 0 mm | - | - | - |
| 1777861710 | 20.56° C | 52% | 1009.3 hPa | 0 mm | - | - | - |
| 1777860823 | 20.56° C | 53% | 1009.4 hPa | 0 mm | - | - | - |
| 1777859304 | 22.22° C | 51% | 1009.8 hPa | 0 mm | - | - | - |
| 1777858996 | 21.67° C | 51% | 1009.9 hPa | 0 mm | - | - | - |
| 1777858107 | 22.22° C | 53% | 1010 hPa | 0 mm | - | - | - |
| 1777857799 | 21.67° C | 54% | 1010 hPa | 0 mm | - | - | - |
| 1777856301 | 21.11° C | 55% | 1010.5 hPa | 0 mm | - | - | - |
| 1777856032 | 21.11° C | 53% | 1010.6 hPa | 0 mm | - | - | - |
| 1777855106 | 19.44° C | 57% | 1010.8 hPa | 0 mm | - | - | - |
| 1777854508 | 18.33° C | 59% | 1010.9 hPa | 0 mm | - | - | - |
| 1777854203 | 18.33° C | 60% | 1010.9 hPa | 0 mm | - | - | - |
| 1777853607 | 17.78° C | 64% | 1010.9 hPa | 0 mm | - | - | - |
| 1777853030 | 18.33° C | 61% | 1011 hPa | 0 mm | - | - | - |
| 1777851506 | 19.44° C | 59% | 1011.2 hPa | 0 mm | - | - | - |
| 1777850911 | 18.89° C | 61% | 1011.3 hPa | 0 mm | - | - | - |
| 1777848198 | 20° C | 59% | 1012 hPa | 0 mm | - | - | - |
| 1777846427 | 18.33° C | 65% | 1012.4 hPa | 0 mm | - | - | - |
| 1777845503 | 18.33° C | 65% | 1012.5 hPa | 0 mm | - | - | - |
| 1777844905 | 18.33° C | 64% | 1012.6 hPa | 0 mm | - | - | - |
| 1777842232 | 18.33° C | 62% | 1012.9 hPa | 0 mm | - | - | - |
| 1777841902 | 18.33° C | 63% | 1013 hPa | 0 mm | - | - | - |
| 1777841595 | 18.33° C | 62% | 1013.1 hPa | 0 mm | - | - | - |
| 1777839498 | 16.67° C | 76% | 1013.3 hPa | 0 mm | - | - | - |
| 1777839210 | 16.67° C | 76% | 1013.3 hPa | 0 mm | - | - | - |
* Rain latest hour (hover to see other rain measurements)
** Current wind speed in m/s (hover to see current wind gust speed)